,,Stat5,,Stat1,,Stat2,,Stat3,,Stat4,,Wind1,,Wind1,
time,status,PA1M_AVG,status,PR1M_SUM,status,RH1M_AVG,status,SR1M_AVG,status,TA1M_AVG,status,W1dAve1m,status,W1sAve1m,
2003-09-12, 00:00:00,VALID,918.983,VALID,0,VALID,99.8604,VALID,0,VALID,19.5402,VALID,24,VALID,0.912454,
2003-09-12, 00:01:00,VALID,918.956,VALID,0,VALID,99.8731,VALID,0.0169808,VALID,19.5529,VALID,26,VALID,0.63722,
2003-09-12, 00:02:00,VALID,918.915,VALID,0,VALID,99.896,VALID,0.0169808,VALID,19.5522,VALID,25,VALID,0.920089,
2003-09-12, 00:03:00,VALID,918.867,VALID,0,VALID,99.896,VALID,0.0339617,VALID,19.5688,VALID,26,VALID,0.554071,
2003-09-12, 00:04:00,VALID,918.819,VALID,0,VALID,99.882,VALID,0.0169808,VALID,19.5753,VALID,26,VALID,0.124794,
2003-09-12, 00:05:00,VALID,918.783,VALID,0,VALID,99.8591,VALID,0,VALID,19.5589,VALID,26,VALID,0.000411184,
2003-09-12, 00:06:00,VALID,918.758,VALID,0,VALID,99.8489,VALID,0,VALID,19.5559,VALID,26,VALID,0.00292969,
2003-09-12, 00:07:00,VALID,918.744,VALID,0,VALID,99.7943,VALID,0.0339617,VALID,19.5559,VALID,26,VALID,0,
2003-09-12, 00:08:00,VALID,918.757,VALID,0,VALID,99.7269,VALID,0,VALID,19.5263,VALID,26,VALID,0.000868056,
2003-09-12, 00:09:00,VALID,918.76,VALID,0,VALID,99.6925,VALID,0.0169808,VALID,19.5298,VALID,26,VALID,0.00580929,
2003-09-12, 00:10:00,VALID,918.782,VALID,0,VALID,99.7307,VALID,0.0509425,VALID,19.536,VALID,26,VALID,0.131546,
2003-09-12, 00:11:00,VALID,918.807,VALID,0,VALID,99.7281,VALID,0.0169808,VALID,19.5554,VALID,26,VALID,0.43011,
2003-09-12, 00:12:00,VALID,918.829,VALID,0,VALID,99.7421,VALID,-0.0849042,VALID,19.5666,VALID,26,VALID,0.752148,
2003-09-12, 00:13:00,VALID,918.859,VALID,0,VALID,99.7103,VALID,-0.101885,VALID,19.5728,VALID,29,VALID,0.71942,
2003-09-12, 00:14:00,VALID,918.865,VALID,0,VALID,99.6963,VALID,-0.101885,VALID,19.5835,VALID,20,VALID,0.846423,
2003-09-12, 00:15:00,VALID,918.877,VALID,0,VALID,99.704,VALID,-0.0849042,VALID,19.5924,VALID,23,VALID,1.07734,
2003-09-12, 00:16:00,VALID,918.897,VALID,0,VALID,99.6569,VALID,-0.0339617,VALID,19.5892,VALID,24,VALID,1.2709,
2003-09-12, 00:17:00,VALID,918.909,VALID,0,VALID,99.6455,VALID,-0.0509425,VALID,19.573,VALID,19,VALID,1.32856,
2003-09-12, 00:18:00,VALID,918.919,VALID,0,VALID,99.6099,VALID,-0.0339617,VALID,19.5668,VALID,27,VALID,1.04046,
2003-09-12, 00:19:00,VALID,918.938,VALID,0,VALID,99.6417,VALID,-0.0679233,VALID,19.573,VALID,17,VALID,1.35198,
2003-09-12, 00:20:00,VALID,918.953,VALID,0,VALID,99.5972,VALID,-0.101885,VALID,19.5502,VALID,347,VALID,0.846917,
2003-09-12, 00:21:00,VALID,918.973,VALID,0,VALID,99.5081,VALID,-0.0849042,VALID,19.5181,VALID,350,VALID,0.500195,
2003-09-12, 00:22:00,VALID,918.982,VALID,0,VALID,99.5527,VALID,-0.0679233,VALID,19.5318,VALID,347,VALID,0.4625,
2003-09-12, 00:23:00,VALID,918.982,VALID,0,VALID,99.5298,VALID,-0.0509425,VALID,19.5117,VALID,335,VALID,0.251439,
2003-09-12, 00:24:00,VALID,918.984,VALID,0,VALID,99.5984,VALID,-0.0509425,VALID,19.5179,VALID,13,VALID,0.607617,
2003-09-12, 00:25:00,VALID,918.959,VALID,0,VALID,99.6264,VALID,-0.0849042,VALID,19.5276,VALID,21,VALID,0.243666,
2003-09-12, 00:26:00,VALID,918.945,VALID,0,VALID,99.6735,VALID,-0.0849042,VALID,19.5375,VALID,21,VALID,0.0282118,
2003-09-12, 00:27:00,VALID,918.944,VALID,0,VALID,99.7052,VALID,-0.0169808,VALID,19.5497,VALID,322,VALID,0.553285,
2003-09-12, 00:28:00,VALID,918.946,VALID,0,VALID,99.6544,VALID,-0.0679233,VALID,19.54,VALID,212,VALID,0.452069,
2003-09-12, 00:29:00,VALID,918.936,VALID,0,VALID,99.648,VALID,-0.0679233,VALID,19.5375,VALID,228,VALID,0.558066,
2003-09-12, 00:30:00,VALID,918.95,VALID,0,VALID,99.6468,VALID,-0.0339617,VALID,19.5271,VALID,231,VALID,0.0751953,
2003-09-12, 00:31:00,VALID,918.932,VALID,0,VALID,99.6671,VALID,-0.0509425,VALID,19.5504,VALID,222,VALID,0.16942,
2003-09-12, 00:32:00,VALID,918.92,VALID,0,VALID,99.6684,VALID,-0.0679233,VALID,19.5537,VALID,205,VALID,0.333265,
2003-09-12, 00:33:00,VALID,918.909,VALID,0,VALID,99.6226,VALID,-0.0339617,VALID,19.5402,VALID,196,VALID,0.355664,
2003-09-12, 00:34:00,VALID,918.873,VALID,0,VALID,99.6035,VALID,-0.0679233,VALID,19.5243,VALID,224,VALID,0.453547,
2003-09-12, 00:35:00,VALID,918.845,VALID,0,VALID,99.5704,VALID,-0.0679233,VALID,19.5278,VALID,236,VALID,0.0896267,
2003-09-12, 00:36:00,VALID,918.804,VALID,0,VALID,99.5463,VALID,-0.0679233,VALID,19.5112,VALID,236,VALID,0.252604,
2003-09-12, 00:37:00,VALID,918.772,VALID,0,VALID,99.5043,VALID,-0.0849042,VALID,19.5248,VALID,277,VALID,0.210515,
2003-09-12, 00:38:00,VALID,918.739,VALID,0,VALID,99.4967,VALID,-0.0679233,VALID,19.5281,VALID,302,VALID,0.00168919,
2003-09-12, 00:39:00,VALID,918.706,VALID,0,VALID,99.5323,VALID,-0.101885,VALID,19.5569,VALID,304,VALID,0.0933594,
2003-09-12, 00:40:00,VALID,918.676,VALID,0,VALID,99.5476,VALID,-0.0509425,VALID,19.5758,VALID,359,VALID,0.484821,
2003-09-12, 00:41:00,VALID,918.654,VALID,0,VALID,99.5514,VALID,-0.0679233,VALID,19.5981,VALID,16,VALID,0.521587,
2003-09-12, 00:42:00,VALID,918.638,VALID,0,VALID,99.5145,VALID,-0.0679233,VALID,19.6182,VALID,11,VALID,0.977734,
2003-09-12, 00:43:00,VALID,918.626,VALID,0,VALID,99.4675,VALID,-0.0509425,VALID,19.622,VALID,20,VALID,1.20608,
2003-09-12, 00:44:00,VALID,918.619,VALID,0,VALID,99.3848,VALID,-0.0849042,VALID,19.6118,VALID,22,VALID,1.40907,
2003-09-12, 00:45:00,VALID,918.632,VALID,0,VALID,99.2678,VALID,-0.0679233,VALID,19.5629,VALID,22,VALID,1.55248,
2003-09-12, 00:46:00,VALID,918.636,VALID,0,VALID,99.2653,VALID,-0.0339617,VALID,19.5343,VALID,33,VALID,1.24303,
2003-09-12, 00:47:00,VALID,918.643,VALID,0,VALID,99.3759,VALID,-0.0509425,VALID,19.5243,VALID,18,VALID,1.04941,
2003-09-12, 00:48:00,VALID,918.656,VALID,0,VALID,99.4738,VALID,-0.0849042,VALID,19.5276,VALID,29,VALID,1.07207,
2003-09-12, 00:49:00,VALID,918.644,VALID,0,VALID,99.4827,VALID,-0.0849042,VALID,19.5112,VALID,32,VALID,1.11964,
2003-09-12, 00:50:00,VALID,918.658,VALID,0,VALID,99.3962,VALID,-0.0679233,VALID,19.4886,VALID,31,VALID,1.25247,
2003-09-12, 00:51:00,VALID,918.628,VALID,0,VALID,99.3543,VALID,-0.101885,VALID,19.4665,VALID,19,VALID,0.906445,
2003-09-12, 00:52:00,VALID,918.633,VALID,0,VALID,99.4395,VALID,-0.0849042,VALID,19.4568,VALID,10,VALID,0.98163,
2003-09-12, 00:53:00,VALID,918.619,VALID,0,VALID,99.5158,VALID,-0.0849042,VALID,19.4794,VALID,7,VALID,0.832682,
2003-09-12, 00:54:00,VALID,918.604,VALID,0,VALID,99.4598,VALID,-0.0509425,VALID,19.4593,VALID,19,VALID,1.21655,
2003-09-12, 00:55:00,VALID,918.571,VALID,0,VALID,99.5221,VALID,-0.0679233,VALID,19.4694,VALID,5,VALID,1.02027,
2003-09-12, 00:56:00,VALID,918.571,VALID,0,VALID,99.5425,VALID,-0.0509425,VALID,19.4697,VALID,18,VALID,1.03568,
2003-09-12, 00:57:00,VALID,918.541,VALID,0,VALID,99.5603,VALID,-0.101885,VALID,19.4665,VALID,12,VALID,0.970508,
2003-09-12, 00:58:00,VALID,918.526,VALID,0,VALID,99.5794,VALID,-0.0509425,VALID,19.4729,VALID,10,VALID,0.999777,
2003-09-12, 00:59:00,VALID,918.511,VALID,0,VALID,99.5679,VALID,-0.0509425,VALID,19.4796,VALID,7,VALID,1.05304,
2003-09-12, 01:00:00,VALID,918.499,VALID,0,VALID,99.5959,VALID,-0.0509425,VALID,19.4729,VALID,357,VALID,0.708203,
2003-09-12, 01:01:00,VALID,918.487,VALID,0,VALID,99.5743,VALID,-0.0679233,VALID,19.4632,VALID,24,VALID,0.931799,
2003-09-12, 01:02:00,VALID,918.472,VALID,0,VALID,99.5844,VALID,-0.0339617,VALID,19.4565,VALID,356,VALID,0.981554,
2003-09-12, 01:03:00,VALID,918.47,VALID,0,VALID,99.5514,VALID,-0.0169808,VALID,19.4473,VALID,351,VALID,0.688101,
2003-09-12, 01:04:00,VALID,918.458,VALID,0,VALID,99.5819,VALID,-0.0679233,VALID,19.4371,VALID,334,VALID,0.638091,
2003-09-12, 01:05:00,VALID,918.45,VALID,0,VALID,99.5959,VALID,-0.0169808,VALID,19.4307,VALID,6,VALID,0.625422,
2003-09-12, 01:06:00,VALID,918.441,VALID,0,VALID,99.6595,VALID,-0.0679233,VALID,19.4304,VALID,334,VALID,0.639648,
2003-09-12, 01:07:00,VALID,918.435,VALID,0.2,VALID,99.6569,VALID,-0.0509425,VALID,19.4344,VALID,332,VALID,0.774777,
2003-09-12, 01:08:00,VALID,918.425,VALID,0,VALID,99.6353,VALID,-0.0339617,VALID,19.4006,VALID,345,VALID,0.753495,
2003-09-12, 01:09:00,VALID,918.418,VALID,0,VALID,99.662,VALID,-0.0339617,VALID,19.4145,VALID,353,VALID,0.534375,
2003-09-12, 01:10:00,VALID,918.423,VALID,0,VALID,99.69,VALID,-0.0679233,VALID,19.4148,VALID,348,VALID,0.199324,
2003-09-12, 01:11:00,VALID,918.432,VALID,0,VALID,99.6849,VALID,-0.0679233,VALID,19.3982,VALID,333,VALID,0.64822,
2003-09-12, 01:12:00,VALID,918.416,VALID,0,VALID,99.6785,VALID,-0.0509425,VALID,19.3857,VALID,324,VALID,0.522837,
2003-09-12, 01:13:00,VALID,918.41,VALID,0,VALID,99.6811,VALID,-0.0509425,VALID,19.3596,VALID,325,VALID,0.53864,
2003-09-12, 01:14:00,VALID,918.41,VALID,0,VALID,99.7637,VALID,-0.0339617,VALID,19.389,VALID,17,VALID,0.767314,
2003-09-12, 01:15:00,VALID,918.409,VALID,0,VALID,99.8464,VALID,-0.0509425,VALID,19.4307,VALID,7,VALID,0.564258,
2003-09-12, 01:16:00,VALID,918.414,VALID,0,VALID,99.8782,VALID,-0.0509425,VALID,19.4568,VALID,5,VALID,0.429018,
2003-09-12, 01:17:00,VALID,918.408,VALID,0,VALID,99.8934,VALID,-0.0849042,VALID,19.4704,VALID,15,VALID,0.802632,
2003-09-12, 01:18:00,VALID,918.379,VALID,0,VALID,99.8769,VALID,-0.101885,VALID,19.4506,VALID,14,VALID,1.45313,
2003-09-12, 01:19:00,VALID,918.372,VALID,0,VALID,99.8731,VALID,-0.0679233,VALID,19.4409,VALID,21,VALID,1.42462,
2003-09-12, 01:20:00,VALID,918.357,VALID,0,VALID,99.9087,VALID,-0.0849042,VALID,19.4737,VALID,5,VALID,0.631727,
2003-09-12, 01:21:00,VALID,918.34,VALID,0,VALID,99.9176,VALID,-0.0339617,VALID,19.4602,VALID,22,VALID,1.16927,
2003-09-12, 01:22:01,VALID,918.342,VALID,0,VALID,99.9418,VALID,-0.0509425,VALID,19.4791,VALID,21,VALID,0.981419,
2003-09-12, 01:23:00,VALID,918.318,VALID,0,VALID,99.9659,VALID,-0.0339617,VALID,19.4789,VALID,16,VALID,1.3655,
2003-09-12, 01:24:00,VALID,918.309,VALID,0.2,VALID,99.9341,VALID,-0.0509425,VALID,19.4471,VALID,17,VALID,1.3584,
2003-09-12, 01:25:00,VALID,918.295,VALID,0,VALID,99.91,VALID,-0.0849042,VALID,19.4279,VALID,10,VALID,0.560045,
2003-09-12, 01:26:01,VALID,918.291,VALID,0,VALID,99.8947,VALID,-0.0509425,VALID,19.379,VALID,14,VALID,1.26891,
2003-09-12, 01:27:00,VALID,918.268,VALID,0,VALID,99.91,VALID,0.0169808,VALID,19.3875,VALID,10,VALID,1.1998,
2003-09-12, 01:28:00,VALID,918.259,VALID,0,VALID,99.9125,VALID,0.0339617,VALID,19.3582,VALID,5,VALID,2.0057,
2003-09-12, 01:29:00,VALID,918.228,VALID,0,VALID,99.8896,VALID,0.0169808,VALID,19.3229,VALID,4,VALID,1.51628,
2003-09-12, 01:30:00,VALID,918.22,VALID,0.2,VALID,99.9049,VALID,0.0169808,VALID,19.3105,VALID,360,VALID,1.46795,
2003-09-12, 01:31:01,VALID,918.216,VALID,0,VALID,99.896,VALID,0.0679233,VALID,19.2909,VALID,4,VALID,1.53463,
2003-09-12, 01:32:00,VALID,918.247,VALID,0,VALID,99.9112,VALID,0.0169808,VALID,19.2747,VALID,6,VALID,1.14928,
2003-09-12, 01:33:00,VALID,918.261,VALID,0,VALID,99.957,VALID,0.0169808,VALID,19.2884,VALID,356,VALID,0.931445,
2003-09-12, 01:34:00,VALID,918.296,VALID,0,VALID,99.9647,VALID,0.0339617,VALID,19.2683,VALID,6,VALID,1.26339,
2003-09-12, 01:35:01,VALID,918.306,VALID,0,VALID,99.971,VALID,0,VALID,19.265,VALID,4,VALID,1.39803,
2003-09-12, 01:36:00,VALID,918.328,VALID,0,VALID,99.9893,VALID,0.0339617,VALID,19.2747,VALID,16,VALID,1.03535,
2003-09-12, 01:37:00,VALID,918.347,VALID,0,VALID,100,VALID,0.0339617,VALID,19.3142,VALID,19,VALID,1.27238,
2003-09-12, 01:38:00,VALID,918.356,VALID,0.2,VALID,100,VALID,0.0509425,VALID,19.3391,VALID,16,VALID,1.05621,
2003-09-12, 01:39:00,VALID,918.358,VALID,0,VALID,100,VALID,0.0169808,VALID,19.3363,VALID,9,VALID,1.51262,
2003-09-12, 01:40:01,VALID,918.347,VALID,0,VALID,100,VALID,0.0169808,VALID,19.3135,VALID,3,VALID,0.945946,
2003-09-12, 01:41:00,VALID,918.348,VALID,0.2,VALID,100,VALID,0.0169808,VALID,19.301,VALID,8,VALID,1.29582,
2003-09-12, 01:42:00,VALID,918.33,VALID,0,VALID,100,VALID,0.0169808,VALID,19.2747,VALID,18,VALID,1.24629,
2003-09-12, 01:43:00,VALID,918.328,VALID,0,VALID,100,VALID,0.0169808,VALID,19.2909,VALID,18,VALID,1.06987,
2003-09-12, 01:44:01,VALID,918.328,VALID,0,VALID,100,VALID,0.0169808,VALID,19.2842,VALID,7,VALID,1.23993,
2003-09-12, 01:45:00,VALID,918.347,VALID,0,VALID,100,VALID,0,VALID,19.2595,VALID,330,VALID,1.09082,
2003-09-12, 01:46:00,VALID,918.353,VALID,0,VALID,100,VALID,0,VALID,19.2233,VALID,336,VALID,1.08214,
2003-09-12, 01:47:01,VALID,918.343,VALID,0,VALID,100,VALID,0.0339617,VALID,19.2106,VALID,342,VALID,1.15582,
2003-09-12, 01:48:00,VALID,918.337,VALID,0,VALID,100,VALID,0,VALID,19.2208,VALID,1,VALID,1.22095,
2003-09-12, 01:49:01,VALID,918.343,VALID,0.2,VALID,100,VALID,0,VALID,19.2101,VALID,358,VALID,1.09312,
2003-09-12, 01:50:00,VALID,918.346,VALID,0,VALID,100,VALID,0,VALID,19.2176,VALID,14,VALID,1.45587,
2003-09-12, 01:51:00,VALID,918.344,VALID,0,VALID,100,VALID,0,VALID,19.2037,VALID,13,VALID,1.20215,
2003-09-12, 01:52:00,VALID,918.344,VALID,0,VALID,100,VALID,0.0169808,VALID,19.2198,VALID,21,VALID,1.40357,
2003-09-12, 01:53:01,VALID,918.342,VALID,0,VALID,100,VALID,0.0169808,VALID,19.2201,VALID,12,VALID,1.8053,
2003-09-12, 01:54:00,VALID,918.34,VALID,0.2,VALID,100,VALID,0,VALID,19.1811,VALID,10,VALID,1.27617,
2003-09-12, 01:55:00,VALID,918.335,VALID,0,VALID,100,VALID,-0.0169808,VALID,19.2044,VALID,6,VALID,1.37162,
2003-09-12, 01:56:01,VALID,918.328,VALID,0,VALID,100,VALID,0,VALID,19.2173,VALID,353,VALID,1.10221,
2003-09-12, 01:57:00,VALID,918.34,VALID,0,VALID,100,VALID,0,VALID,19.1977,VALID,357,VALID,0.851563,
2003-09-12, 01:58:01,VALID,918.33,VALID,0,VALID,100,VALID,0.0339617,VALID,19.2007,VALID,1,VALID,1.23965,
2003-09-12, 01:59:00,VALID,918.304,VALID,0,VALID,100,VALID,0.0169808,VALID,19.1841,VALID,9,VALID,1.33974,
2003-09-12, 02:00:00,VALID,918.31,VALID,0.2,VALID,100,VALID,0.0169808,VALID,19.1908,VALID,12,VALID,1.22656,
2003-09-12, 02:01:00,VALID,918.292,VALID,0,VALID,100,VALID,0.0169808,VALID,19.2136,VALID,4,VALID,0.833929,
2003-09-12, 02:02:01,VALID,918.299,VALID,0,VALID,100,VALID,0.0169808,VALID,19.1912,VALID,6,VALID,1.58512,
2003-09-12, 02:03:00,VALID,918.287,VALID,0,VALID,100,VALID,0.0169808,VALID,19.1753,VALID,10,VALID,1.42715,
2003-09-12, 02:04:00,VALID,918.288,VALID,0.2,VALID,100,VALID,0,VALID,19.1721,VALID,4,VALID,1.42631,
2003-09-12, 02:05:01,VALID,918.286,VALID,0,VALID,100,VALID,0.0169808,VALID,19.1525,VALID,2,VALID,1.30425,
2003-09-12, 02:06:00,VALID,918.274,VALID,0,VALID,100,VALID,0.0169808,VALID,19.1262,VALID,351,VALID,0.769231,
2003-09-12, 02:07:01,VALID,918.27,VALID,0,VALID,100,VALID,0.0169808,VALID,19.1264,VALID,320,VALID,0.748733,
2003-09-12, 02:08:00,VALID,918.241,VALID,0,VALID,100,VALID,0,VALID,19.0937,VALID,339,VALID,0.36402,
2003-09-12, 02:09:00,VALID,918.219,VALID,0,VALID,100,VALID,0.0169808,VALID,19.1001,VALID,16,VALID,0.825,
2003-09-12, 02:10:00,VALID,918.208,VALID,0.2,VALID,100,VALID,0.0339617,VALID,19.1393,VALID,11,VALID,0.398661,
2003-09-12, 02:11:01,VALID,918.19,VALID,0,VALID,100,VALID,0.0509425,VALID,19.149,VALID,10,VALID,1.21834,
2003-09-12, 02:12:00,VALID,918.178,VALID,0,VALID,100,VALID,-0.0679233,VALID,19.1505,VALID,11,VALID,1.51719,
2003-09-12, 02:13:00,VALID,918.149,VALID,0,VALID,100,VALID,-0.101885,VALID,19.1142,VALID,9,VALID,1.89464,
2003-09-12, 02:14:01,VALID,918.128,VALID,0,VALID,100,VALID,-0.0849042,VALID,19.1408,VALID,3,VALID,1.29774,
2003-09-12, 02:15:00,VALID,918.131,VALID,0,VALID,100,VALID,-0.0849042,VALID,19.1212,VALID,9,VALID,1.61739,
2003-09-12, 02:16:01,VALID,918.117,VALID,0,VALID,100,VALID,-0.0679233,VALID,19.112,VALID,345,VALID,1.62542,
2003-09-12, 02:17:00,VALID,918.124,VALID,0,VALID,100,VALID,-0.0849042,VALID,19.0598,VALID,329,VALID,1.07264,
2003-09-12, 02:18:00,VALID,918.131,VALID,0,VALID,100,VALID,-0.0849042,VALID,19.0601,VALID,358,VALID,1,
2003-09-12, 02:19:00,VALID,918.114,VALID,0,VALID,100,VALID,-0.0679233,VALID,19.0757,VALID,351,VALID,1.24978,
2003-09-12, 02:20:01,VALID,918.107,VALID,0,VALID,100,VALID,-0.0679233,VALID,19.0762,VALID,3,VALID,0.625411,
2003-09-12, 02:21:00,VALID,918.104,VALID,0,VALID,100,VALID,-0.101885,VALID,19.0953,VALID,13,VALID,0.79668,
2003-09-12, 02:22:00,VALID,918.087,VALID,0,VALID,100,VALID,-0.0849042,VALID,19.1212,VALID,355,VALID,0.334248,
2003-09-12, 02:23:01,VALID,918.09,VALID,0,VALID,100,VALID,-0.0849042,VALID,19.1505,VALID,348,VALID,0.33138,
2003-09-12, 02:24:00,VALID,918.08,VALID,0,VALID,100,VALID,-0.101885,VALID,19.1246,VALID,20,VALID,0.762019,
2003-09-12, 02:25:01,VALID,918.06,VALID,0.2,VALID,100,VALID,-0.0849042,VALID,19.1283,VALID,360,VALID,0.295397,
2003-09-12, 02:26:00,VALID,918.059,VALID,0,VALID,100,VALID,-0.101885,VALID,19.0919,VALID,306,VALID,0.306166,
2003-09-12, 02:27:00,VALID,918.053,VALID,0,VALID,100,VALID,0.0339617,VALID,19.1066,VALID,3,VALID,0.75918,
2003-09-12, 02:28:00,VALID,918.048,VALID,0,VALID,100,VALID,0.0509425,VALID,19.1386,VALID,20,VALID,0.781027,
2003-09-12, 02:29:01,VALID,918.044,VALID,0,VALID,100,VALID,0.0509425,VALID,19.1746,VALID,25,VALID,0.757813,
2003-09-12, 02:30:00,VALID,918.034,VALID,0,VALID,100,VALID,0,VALID,19.2039,VALID,19,VALID,1.05234,
2003-09-12, 02:31:00,VALID,918.031,VALID,0,VALID,100,VALID,0.0339617,VALID,19.2171,VALID,23,VALID,1.23965,
2003-09-12, 02:32:01,VALID,918.019,VALID,0,VALID,100,VALID,0,VALID,19.2136,VALID,15,VALID,1.07986,
2003-09-12, 02:33:00,VALID,918.021,VALID,0,VALID,100,VALID,0.0339617,VALID,19.1937,VALID,22,VALID,0.61879,
2003-09-12, 02:34:01,VALID,918.011,VALID,0,VALID,100,VALID,0.0169808,VALID,19.2136,VALID,27,VALID,0.0225929,
2003-09-12, 02:35:00,VALID,918.021,VALID,0,VALID,100,VALID,0.0169808,VALID,19.2007,VALID,273,VALID,0.173986,
2003-09-12, 02:36:00,VALID,918.008,VALID,0.2,VALID,100,VALID,0.0169808,VALID,19.1808,VALID,223,VALID,0.0154297,
2003-09-12, 02:37:00,VALID,917.986,VALID,0,VALID,100,VALID,0.0339617,VALID,19.1875,VALID,223,VALID,0.0100446,
2003-09-12, 02:38:01,VALID,917.981,VALID,0,VALID,100,VALID,0.0169808,VALID,19.1975,VALID,223,VALID,0.000822368,
2003-09-12, 02:39:00,VALID,917.95,VALID,0,VALID,100,VALID,0.0339617,VALID,19.2042,VALID,347,VALID,0.699414,
2003-09-12, 02:40:00,VALID,917.931,VALID,0,VALID,100,VALID,0.0509425,VALID,19.1975,VALID,17,VALID,0.813767,
2003-09-12, 02:41:01,VALID,917.922,VALID,0,VALID,100,VALID,0.0169808,VALID,19.2101,VALID,23,VALID,0.727865,
2003-09-12, 02:42:00,VALID,917.93,VALID,0,VALID,100,VALID,0.0339617,VALID,19.2009,VALID,344,VALID,0.838742,
2003-09-12, 02:43:01,VALID,917.932,VALID,0,VALID,100,VALID,0.0339617,VALID,19.1744,VALID,291,VALID,0.126478,
2003-09-12, 02:44:00,VALID,917.934,VALID,0,VALID,100,VALID,0.0169808,VALID,19.159,VALID,291,VALID,0.0418074,
2003-09-12, 02:45:00,VALID,917.937,VALID,0,VALID,100,VALID,0.0339617,VALID,19.1682,VALID,291,VALID,0.0154297,
2003-09-12, 02:46:00,VALID,917.946,VALID,0,VALID,100,VALID,0,VALID,19.1682,VALID,358,VALID,0.662723,
2003-09-12, 02:47:01,VALID,917.944,VALID,0,VALID,100,VALID,0.0339617,VALID,19.1622,VALID,14,VALID,1.42085,
2003-09-12, 02:48:00,VALID,917.931,VALID,0,VALID,100,VALID,0.0339617,VALID,19.0974,VALID,11,VALID,1.30879,
2003-09-12, 02:49:01,VALID,917.921,VALID,0,VALID,100,VALID,0.0169808,VALID,19.0688,VALID,360,VALID,0.994721,
2003-09-12, 02:50:01,VALID,917.899,VALID,0,VALID,100,VALID,0,VALID,19.0459,VALID,343,VALID,0.861328,
2003-09-12, 02:51:00,VALID,917.876,VALID,0.2,VALID,100,VALID,-0.0169808,VALID,19.0425,VALID,356,VALID,0.779447,
2003-09-12, 02:52:01,VALID,917.866,VALID,0,VALID,100,VALID,0,VALID,19.0785,VALID,11,VALID,0.737331,
2003-09-12, 02:53:00,VALID,917.853,VALID,0,VALID,100,VALID,0,VALID,19.0944,VALID,1,VALID,0.915329,
2003-09-12, 02:54:00,VALID,917.85,VALID,0,VALID,100,VALID,0.0169808,VALID,19.0618,VALID,357,VALID,0.888281,
2003-09-12, 02:55:00,VALID,917.846,VALID,0,VALID,100,VALID,0,VALID,19.0429,VALID,8,VALID,1.25826,
2003-09-12, 02:56:01,VALID,917.834,VALID,0,VALID,100,VALID,0.0169808,VALID,19.0363,VALID,359,VALID,1.12459,
2003-09-12, 02:57:00,VALID,917.82,VALID,0,VALID,100,VALID,0,VALID,19.0203,VALID,356,VALID,0.654492,
2003-09-12, 02:58:01,VALID,917.82,VALID,0,VALID,100,VALID,0.0169808,VALID,19.0102,VALID,10,VALID,0.846706,
2003-09-12, 02:59:01,VALID,917.82,VALID,0,VALID,100,VALID,0.0339617,VALID,19.001,VALID,23,VALID,1.59028,
2003-09-12, 03:00:00,VALID,917.792,VALID,0,VALID,100,VALID,0,VALID,19.0139,VALID,16,VALID,1.61038,
2003-09-12, 03:01:01,VALID,917.815,VALID,0,VALID,100,VALID,0.0169808,VALID,19.0489,VALID,14,VALID,0.990921,
2003-09-12, 03:02:00,VALID,917.821,VALID,0,VALID,100,VALID,0.0169808,VALID,19.0785,VALID,18,VALID,0.83636,
2003-09-12, 03:03:00,VALID,917.809,VALID,0,VALID,100,VALID,0,VALID,19.0884,VALID,25,VALID,0.581641,
2003-09-12, 03:04:01,VALID,917.798,VALID,0,VALID,100,VALID,0.0169808,VALID,19.1016,VALID,27,VALID,0.653125,
2003-09-12, 03:05:01,VALID,917.789,VALID,0,VALID,100,VALID,0,VALID,19.0849,VALID,20,VALID,1.01789,
2003-09-12, 03:06:01,VALID,917.783,VALID,0,VALID,100,VALID,0.0169808,VALID,19.0722,VALID,11,VALID,0.946484,
2003-09-12, 03:07:01,VALID,917.789,VALID,0,VALID,100,VALID,0,VALID,19.0494,VALID,21,VALID,1.34502,
2003-09-12, 03:08:01,VALID,917.766,VALID,0,VALID,100,VALID,0.0169808,VALID,19.0141,VALID,29,VALID,1.53798,
2003-09-12, 03:09:01,VALID,917.756,VALID,0.2,VALID,100,VALID,0,VALID,19.0176,VALID,41,VALID,1.26603,
2003-09-12, 03:10:01,VALID,917.752,VALID,0,VALID,100,VALID,0.0339617,VALID,19.004,VALID,25,VALID,1.30173,
2003-09-12, 03:11:01,VALID,917.737,VALID,0,VALID,100,VALID,0.0339617,VALID,19.0233,VALID,19,VALID,1.12943,
2003-09-12, 03:12:01,VALID,917.723,VALID,0,VALID,100,VALID,0,VALID,19.0303,VALID,22,VALID,1.03594,
2003-09-12, 03:13:01,VALID,917.7,VALID,0,VALID,100,VALID,0.0169808,VALID,19.0303,VALID,32,VALID,1.35737,
2003-09-12, 03:14:01,VALID,917.684,VALID,0,VALID,100,VALID,0,VALID,19.0074,VALID,37,VALID,1.08923,
2003-09-12, 03:15:01,VALID,917.659,VALID,0,VALID,100,VALID,-0.0169808,VALID,19.0178,VALID,31,VALID,0.728711,
2003-09-12, 03:16:01,VALID,917.654,VALID,0,VALID,100,VALID,0.0169808,VALID,19.0238,VALID,26,VALID,0.553209,
2003-09-12, 03:17:01,VALID,917.649,VALID,0,VALID,100,VALID,0,VALID,19.0007,VALID,49,VALID,0.923828,
2003-09-12, 03:18:01,VALID,917.625,VALID,0,VALID,100,VALID,0,VALID,18.9747,VALID,50,VALID,0.914864,
2003-09-12, 03:19:01,VALID,917.609,VALID,0,VALID,100,VALID,0,VALID,18.9749,VALID,60,VALID,0.703758,
2003-09-12, 03:20:01,VALID,917.597,VALID,0,VALID,100,VALID,0,VALID,18.9662,VALID,73,VALID,0.84565,
2003-09-12, 03:21:01,VALID,917.596,VALID,0,VALID,100,VALID,-0.0169808,VALID,18.9269,VALID,94,VALID,0.71543,
2003-09-12, 03:22:01,VALID,917.607,VALID,0,VALID,100,VALID,0,VALID,18.9004,VALID,130,VALID,0.58125,
2003-09-12, 03:23:01,VALID,917.595,VALID,0,VALID,100,VALID,0,VALID,18.9043,VALID,131,VALID,0.470806,
2003-09-12, 03:24:01,VALID,917.591,VALID,0,VALID,100,VALID,0,VALID,18.9138,VALID,127,VALID,0.469922,
2003-09-12, 03:25:01,VALID,917.57,VALID,0,VALID,100,VALID,0,VALID,18.9269,VALID,95,VALID,0.518159,
2003-09-12, 03:26:00,VALID,917.55,VALID,0.2,VALID,100,VALID,0,VALID,18.9366,VALID,96,VALID,0.594835,
2003-09-12, 03:27:00,VALID,917.539,VALID,0,VALID,100,VALID,-0.0169808,VALID,18.9302,VALID,76,VALID,0.525841,
2003-09-12, 03:28:00,VALID,917.535,VALID,0,VALID,100,VALID,0,VALID,18.9269,VALID,67,VALID,0.535051,
2003-09-12, 03:29:00,VALID,917.538,VALID,0,VALID,100,VALID,0,VALID,18.9133,VALID,67,VALID,0.524493,
2003-09-12, 03:30:00,VALID,917.533,VALID,0,VALID,100,VALID,0,VALID,18.9138,VALID,72,VALID,0.631055,
2003-09-12, 03:31:00,VALID,917.541,VALID,0,VALID,100,VALID,0,VALID,18.9173,VALID,62,VALID,0.776563,
2003-09-12, 03:32:00,VALID,917.542,VALID,0,VALID,100,VALID,0,VALID,18.9235,VALID,59,VALID,0.680304,
2003-09-12, 03:33:00,VALID,917.532,VALID,0,VALID,100,VALID,0.0169808,VALID,18.9364,VALID,51,VALID,0.540234,
2003-09-12, 03:34:00,VALID,917.529,VALID,0,VALID,100,VALID,0,VALID,18.9468,VALID,50,VALID,0.642103,
2003-09-12, 03:35:00,VALID,917.526,VALID,0,VALID,100,VALID,-0.0169808,VALID,18.9336,VALID,45,VALID,0.611545,
2003-09-12, 03:36:00,VALID,917.534,VALID,0,VALID,100,VALID,0.0169808,VALID,18.9336,VALID,36,VALID,0.413261,
2003-09-12, 03:37:00,VALID,917.549,VALID,0,VALID,100,VALID,0,VALID,18.9468,VALID,35,VALID,0.334882,
2003-09-12, 03:38:00,VALID,917.533,VALID,0,VALID,100,VALID,0,VALID,18.9265,VALID,30,VALID,0.252111,
2003-09-12, 03:39:00,VALID,917.532,VALID,0,VALID,100,VALID,-0.0169808,VALID,18.9106,VALID,358,VALID,0.295117,